"Pseudo-MPEC" for P11VMln

Created 2024 Jul 20 5:22:04 UT using Find_Orb

Click here for an explanation of pseudo-MPECs

 
 Astrometry: 
     P11VMln* C2024 06 26.27597615 01 35.583-29 04 41.58   ~6Q9q 22.15wXNEOCPF51
     P11VMln  C2024 06 26.30062315 01 34.916-29 04 23.53   ~6Q9q 22.39wXNEOCPF51
     P11VMln  C2024 06 26.31295015 01 34.598-29 04 14.34   ~6Q9q 22.15wXNEOCPF51
     P11VMln DC2024 06 28.18197 15 00 52.30 -28 41 25.5    ~6S57 22.0 GVNEOCP695
     P11VMln DC2024 06 28.18639 15 00 52.21 -28 41 22.3    ~6S57 22.2 GVNEOCP695
     P11VMln DC2024 06 28.19080 15 00 52.11 -28 41 19.2    ~6S57 22.3 GVNEOCP695

Station data:
(695) Kitt Peak  (N31.958395 W111.594670)  US/Arizona. Measurer S. Deen.
   3.5-m f/1.75 reflector + CCD0.9-m f/7.5 reflector + CCD4.0-m
   Ritchey-Chrétien + CCD0.61-m f/3.5 Schmidt + CCD2.3-m f/9 reflector + CCD.
(F51) Pan-STARRS 1, Haleakala  (N20.707234 W156.255910)  US/Hawaii.
   Observers J. Bulger, T. Lowe, A. Schultz, M. Willman. Measurers K.
   Chambers, S. Chastel, T. de Boer, L. Denneau, J. Fairlamb, H. Flewelling,
   M. Huber, C.-C. Lin, E. Magnier, Y. Ramanjooloo, R. Wainscoat, R. Weryk.
   1.8-m Ritchey-Chrétien + CCD.

Orbital elements:  P11VMln
   Perihelion 2023 Feb 15.30915 +/- 419 TT =  7:25:11 (JD 2459990.80915)
Epoch 2024 Jun 28.0 TT = JDT 2460489.5   Earth MOID: 0.3420      AutoNEOCP
M 167.77647810 +/- 100              (J2000 ecliptic)
n   0.33643384 +/- 0.152            Peri.  169.73976 +/- 53
a   2.04740109 +/- 0.618            Node   260.89789 +/- 10
e   0.3539231 +/- 0.224             Incl.   28.89393 +/- 13
P   2.92957                H 17.77  G  0.15   U 11.5  SR
q 1.32277847 +/- 0.644    Q 2.77202370 +/- 31.9
From 6 observations 2024 June 26-28 (46.0 hr); mean residual 0".07
Residuals in arcseconds: 
240626 F51  .10+  .12+    240626 F51  .00   .04-    240628 695  .05+  .04+    
240626 F51  .10-  .08-    240628 695  .09-  .04+    240628 695  .05+  .06-    

Ephemerides (geocentric):
Date (UTC) HH   RA             Dec           delta  r     elong  mag " sig PA
---- --------  ------------   ------------  ------ ------ -----  --- --------
2024 07 20 05  15 00 16.591   -24 58 31.40  2.2261 2.7707 111.9 22.7 1450  72
2024 07 20 06  15 00 17.262   -24 58 11.23  2.2266 2.7707 111.9 22.7 1455  72
2024 07 20 07  15 00 17.935   -24 57 51.07  2.2272 2.7707 111.8 22.7 1460  72
2024 07 20 08  15 00 18.611   -24 57 30.94  2.2277 2.7707 111.8 22.7 1465  72
2024 07 20 09  15 00 19.289   -24 57 10.82  2.2283 2.7707 111.8 22.7 1470  72
2024 07 20 10  15 00 19.970   -24 56 50.72  2.2288 2.7707 111.7 22.7 1475  72
2024 07 20 11  15 00 20.654   -24 56 30.64  2.2294 2.7707 111.7 22.7 1480  72
2024 07 20 12  15 00 21.339   -24 56 10.58  2.2299 2.7707 111.7 22.7 1485  72
2024 07 20 13  15 00 22.028   -24 55 50.54  2.2304 2.7707 111.6 22.7 1490  72
2024 07 20 14  15 00 22.719   -24 55 30.51  2.2310 2.7707 111.6 22.7 1495  72
2024 07 20 15  15 00 23.412   -24 55 10.51  2.2315 2.7707 111.5 22.7 1500  72
2024 07 20 16  15 00 24.108   -24 54 50.52  2.2321 2.7707 111.5 22.7 1505  72
2024 07 20 17  15 00 24.806   -24 54 30.56  2.2326 2.7708 111.5 22.7 1510  72
2024 07 20 18  15 00 25.507   -24 54 10.61  2.2332 2.7708 111.4 22.7 1515  72
2024 07 20 19  15 00 26.210   -24 53 50.68  2.2337 2.7708 111.4 22.7 1520  72
2024 07 20 20  15 00 26.916   -24 53 30.77  2.2343 2.7708 111.3 22.7 1525  72
2024 07 20 21  15 00 27.624   -24 53 10.89  2.2348 2.7708 111.3 22.7 1531  72
2024 07 20 22  15 00 28.335   -24 52 51.01  2.2354 2.7708 111.3 22.7 1536  72
2024 07 20 23  15 00 29.048   -24 52 31.16  2.2359 2.7708 111.2 22.7 1541  72
2024 07 21 00  15 00 29.763   -24 52 11.33  2.2365 2.7708 111.2 22.7 1546  72
2024 07 21 01  15 00 30.482   -24 51 51.52  2.2370 2.7708 111.2 22.7 1551  72
2024 07 21 02  15 00 31.202   -24 51 31.72  2.2376 2.7708 111.1 22.7 1556  72
2024 07 21 03  15 00 31.925   -24 51 11.95  2.2381 2.7708 111.1 22.7 1561  72
2024 07 21 04  15 00 32.651   -24 50 52.19  2.2387 2.7708 111.0 22.7 1566  72
2024 07 21 05  15 00 33.379   -24 50 32.45  2.2392 2.7708 111.0 22.7 1571  72
2024 07 21 06  15 00 34.109   -24 50 12.73  2.2398 2.7709 111.0 22.7 1577  73
2024 07 21 07  15 00 34.842   -24 49 53.03  2.2403 2.7709 110.9 22.7 1582  73
2024 07 21 08  15 00 35.578   -24 49 33.35  2.2409 2.7709 110.9 22.7 1587  73
2024 07 21 09  15 00 36.315   -24 49 13.69  2.2415 2.7709 110.9 22.7 1592  73
2024 07 21 10  15 00 37.056   -24 48 54.04  2.2420 2.7709 110.8 22.7 1597  73
2024 07 21 11  15 00 37.798   -24 48 34.42  2.2426 2.7709 110.8 22.7 1602  73
2024 07 21 12  15 00 38.544   -24 48 14.81  2.2431 2.7709 110.7 22.7 1608  73
2024 07 21 13  15 00 39.291   -24 47 55.23  2.2437 2.7709 110.7 22.7 1613  73
2024 07 21 14  15 00 40.041   -24 47 35.66  2.2442 2.7709 110.7 22.7 1618  73
2024 07 21 15  15 00 40.794   -24 47 16.11  2.2448 2.7709 110.6 22.7 1623  73
2024 07 21 16  15 00 41.549   -24 46 56.58  2.2453 2.7709 110.6 22.7 1628  73
2024 07 21 17  15 00 42.306   -24 46 37.07  2.2459 2.7709 110.5 22.7 1634  73
2024 07 21 18  15 00 43.066   -24 46 17.58  2.2464 2.7709 110.5 22.7 1639  73
2024 07 21 19  15 00 43.829   -24 45 58.10  2.2470 2.7709 110.5 22.7 1644  73
2024 07 21 20  15 00 44.593   -24 45 38.65  2.2475 2.7710 110.4 22.7 1649  73
2024 07 21 21  15 00 45.361   -24 45 19.21  2.2481 2.7710 110.4 22.7 1655  73
2024 07 21 22  15 00 46.130   -24 44 59.80  2.2486 2.7710 110.4 22.7 1660  73
2024 07 21 23  15 00 46.902   -24 44 40.40  2.2492 2.7710 110.3 22.7 1665  73
2024 07 22 00  15 00 47.677   -24 44 21.02  2.2497 2.7710 110.3 22.7 1670  73
2024 07 22 01  15 00 48.454   -24 44 01.66  2.2503 2.7710 110.2 22.7 1676  73
2024 07 22 02  15 00 49.233   -24 43 42.32  2.2508 2.7710 110.2 22.7 1681  73
2024 07 22 03  15 00 50.015   -24 43 23.00  2.2514 2.7710 110.2 22.7 1686  73
2024 07 22 04  15 00 50.799   -24 43 03.69  2.2520 2.7710 110.1 22.7 1692  73